[[{"header":{"parameterUnit":"m.s-1","parameterCategory":2,"la1":30.2992,"la2":30.254,"lo1":-89.0895,"lo2":-89.0443,"dy":0.0025,"dx":0.0025,"nx":19,"ny":19,"refTime":"2026-03-23T09:00:00:Z","depth":"0","parameterNumber":2,"parameterNumberName":"U-component_of_CURRENTS"},"data":[0,0,0,-0.2041,-0.2038,-0.1867,-0.1866,-0.1598,-0.1596,0,0,0,0,0,0,0,0,0,0,0,-0.2094,-0.2093,-0.2041,-0.2038,-0.1868,-0.1866,-0.1599,-0.1596,0,0,0,0,0,0,0,0,0,0,0,-0.2095,-0.2094,-0.2093,-0.2037,-0.1868,-0.1866,-0.1599,-0.1734,0,0,0,0,0,0,0,0,0,0,-0.1903,-0.1939,-0.2094,-0.2093,-0.2037,-0.1868,-0.1866,-0.1741,-0.1726,-0.1669,0,-0.1654,0,-0.163,-0.1579,-0.1578,0,0,0,-0.2012,-0.1952,-0.1941,-0.2093,-0.2035,-0.1868,-0.1937,-0.1733,-0.1715,-0.1649,-0.165,-0.164,-0.1626,-0.1578,-0.1577,-0.1349,-0.1348,0,0,-0.2022,-0.2022,-0.1954,-0.1931,-0.2003,-0.1943,-0.1932,-0.1723,-0.1687,-0.1649,-0.1634,-0.1621,-0.1576,-0.1574,-0.1349,-0.1348,0,0,0,-0.2066,-0.2028,-0.2022,-0.1942,-0.1921,-0.1939,-0.1926,-0.1696,-0.1704,-0.1631,-0.1618,-0.1575,-0.1572,-0.135,-0.1349,-0.1376,0,0,0,-0.207,-0.2057,-0.2027,-0.2018,-0.1926,-0.1806,-0.1904,-0.1719,-0.1695,-0.162,-0.1575,-0.1569,-0.1351,-0.1349,-0.1376,-0.1343,0,0,0,-0.21,-0.2058,-0.2052,-0.202,-0.1963,-0.181,-0.1803,-0.1713,-0.1687,-0.1578,-0.1568,-0.1351,-0.135,-0.1377,-0.1345,-0.1303,0,0,0,-0.2088,-0.196,-0.2051,-0.1917,-0.1965,-0.1854,-0.1804,-0.1693,-0.1603,-0.1573,-0.1351,-0.1349,-0.1377,-0.1347,-0.1305,-0.0933,-0.0895,0,0,-0.1902,-0.1938,-0.1864,-0.194,-0.1839,-0.1875,-0.1745,-0.1619,-0.1559,-0.1413,-0.1407,-0.1376,-0.1345,-0.1303,-0.0848,-0.0812,0,0,0,-0.1788,-0.1753,-0.1739,-0.1709,-0.1696,-0.1682,-0.1609,-0.1583,-0.1458,-0.1504,-0.1338,-0.1316,-0.129,-0.1068,-0.104,-0.081,-0.1342,-0.1342,-0.1342,-0.1525,-0.1571,-0.1495,-0.1555,-0.1519,-0.153,-0.1491,-0.1435,-0.1418,-0.1378,-0.1312,-0.1256,-0.1019,-0.0993,-0.0763,-0.1305,-0.1305,-0.1305,-0.1305,-0.1341,-0.1336,-0.1403,-0.1358,-0.1417,-0.1356,-0.1344,-0.1351,-0.127,-0.1286,-0.1261,-0.1073,-0.0963,-0.0728,-0.1306,-0.1306,-0.1306,-0.1306,-0.1306,-0.1274,-0.1277,-0.1284,-0.1282,-0.1269,-0.13,-0.1247,-0.1281,-0.1237,-0.1215,-0.0954,-0.0949,-0.0761,-0.1219,-0.1219,-0.1218,-0.1218,-0.1218,-0.1218,-0.122,-0.1224,-0.1216,-0.1223,-0.1235,-0.1239,-0.1214,-0.1137,-0.0976,-0.0895,-0.0892,-0.0654,-0.1228,-0.1253,-0.1213,-0.1214,-0.1214,-0.1215,-0.1215,-0.1136,-0.1164,-0.1143,-0.1154,-0.1168,-0.1023,-0.1054,-0.0691,-0.0639,-0.0439,-0.0183,-0.0705,-0.0644,-0.0661,-0.067,-0.0481,-0.0481,-0.0481,-0.0481,-0.1086,-0.11,-0.1068,-0.1069,-0.1037,-0.0926,-0.0466,-0.0166,0.0162,0.0356,0.0239,0.0321,0.0281,0.0394,0.0354,0.0364,0.0811,0.0812,0.0813,-0.103,-0.1035,-0.0987,-0.0995,-0.0955,-0.0698,-0.0108,0.0361,0.0773,0.0869,0.0479,0.0425,0.0532,0.0451,0.0611,0.0535,0.0544,0,0]},{"header":{"parameterUnit":"m.s-1","parameterCategory":2,"la1":30.2992,"la2":30.254,"lo1":-89.0895,"lo2":-89.0443,"dy":0.0025,"dx":0.0025,"nx":19,"ny":19,"refTime":"2026-03-23T09:00:00:Z","depth":"0","parameterNumber":3,"parameterNumberName":"V-component_of_CURRENTS"},"data":[0,0,0,-0.0022,-0.0018,0.011,0.0111,0.0082,0.0081,0,0,0,0,0,0,0,0,0,0,0,-0.0098,-0.0097,-0.0022,-0.0018,0.011,0.0111,0.0082,0.0081,0,0,0,0,0,0,0,0,0,0,0,-0.0098,-0.0097,-0.0097,-0.0017,0.011,0.0111,0.0082,0.0028,0,0,0,0,0,0,0,0,0,0,-0.0075,-0.0133,-0.0098,-0.0097,-0.0016,0.011,0.0111,0.0027,0.0031,-0.0025,0,-0.0007,0,0.0055,0.0077,0.0076,0,0,0,-0.0039,-0.0136,-0.0069,-0.0097,-0.0015,0.011,0.0046,0.0031,0.0035,-0.0021,-0.0007,-0.0005,0.0055,0.0076,0.0076,0.0014,0.0014,0,0,-0.0046,-0.0108,-0.0072,-0.0067,0.0012,0.0043,0.0051,0.0035,0.0012,-0.0006,-0.0004,0.0054,0.0076,0.0075,0.0015,0.0014,0,0,0,-0.0052,-0.0114,-0.0044,-0.0068,-0.0018,0.0047,0.0056,0.0013,0.0045,-0.0004,0.0054,0.0075,0.0074,0.0015,0.0015,-0.0141,0,0,0,-0.0058,-0.0114,-0.0048,-0.0088,-0.0017,0.0022,0.0033,0.0045,0.0048,0.0054,0.0075,0.0074,0.0015,0.0015,-0.0137,-0.0213,0,0,0,-0.0103,-0.0119,-0.0098,-0.0091,-0.0017,0.0025,0.0056,0.0048,0.0083,0.0076,0.0074,0.0015,0.0015,-0.0132,-0.0205,-0.0136,0,0,0,-0.0178,-0.0226,-0.0101,-0.0151,-0.0018,0.0016,0.0057,0.0081,0.0075,0.0075,0.0015,0.0015,-0.0131,-0.02,-0.0134,0.0236,0.0253,0,0,-0.0289,-0.0241,-0.0272,-0.0156,-0.0149,-0.0003,-0.0056,-0.0025,0.0046,0.0003,0.0003,-0.0138,-0.0204,-0.0136,0.0212,0.023,0,0,0,-0.0341,-0.0347,-0.0323,-0.0292,-0.0212,-0.0172,-0.0099,-0.0079,-0.0075,0.0049,-0.0102,-0.0139,-0.009,0.014,0.0153,0.0262,0.0013,0.0013,0.0013,-0.0516,-0.0471,-0.0501,-0.0429,-0.0409,-0.0303,-0.0293,-0.0249,-0.0176,-0.018,-0.024,-0.0263,-0.0021,-0.0006,0.0097,-0.0203,-0.0203,-0.0204,-0.0204,-0.0627,-0.0634,-0.0603,-0.061,-0.0555,-0.0573,-0.0519,-0.0458,-0.0423,-0.0367,-0.0309,-0.0005,0.0,0.0106,-0.0214,-0.0212,-0.0211,-0.021,-0.0209,-0.0678,-0.0686,-0.0688,-0.0722,-0.0747,-0.0695,-0.062,-0.0618,-0.0543,-0.0534,-0.0114,-0.0105,-0.0025,-0.0435,-0.0435,-0.0435,-0.0435,-0.0435,-0.0435,-0.0723,-0.0734,-0.078,-0.0814,-0.0819,-0.0767,-0.0673,-0.0538,-0.0325,-0.0235,-0.0228,0.0014,-0.033,-0.0336,-0.0436,-0.0436,-0.0436,-0.0436,-0.0436,-0.0777,-0.0788,-0.0851,-0.0869,-0.0808,-0.0553,-0.0491,-0.0028,0.0042,0.024,0.0304,-0.0019,0.0095,0.0092,0.0101,0.0119,0.0119,0.0119,0.0119,-0.0813,-0.0826,-0.0866,-0.0842,-0.0697,-0.0438,0.0214,0.059,0.0741,0.0763,0.0579,0.0694,0.0667,0.0816,0.0796,0.0821,0.102,0.1021,0.1021,-0.0848,-0.086,-0.0852,-0.08,-0.0612,-0.0122,0.0614,0.1204,0.1245,0.1048,0.0636,0.0598,0.0745,0.0695,0.0914,0.0877,0.0913,0,0]}],[{"header":{"parameterUnit":"m.s-1","parameterCategory":2,"la1":30.2992,"la2":30.254,"lo1":-89.0895,"lo2":-89.0443,"dy":0.0025,"dx":0.0025,"nx":19,"ny":19,"refTime":"2026-03-23T09:00:00:Z","depth":"2","parameterNumber":2,"parameterNumberName":"U-component_of_CURRENTS"},"data":[0,0,0,-0.1311,-0.131,-0.1301,-0.1301,-0.1369,-0.137,0,0,0,0,0,0,0,0,0,0,0,-0.1312,-0.1312,-0.1311,-0.131,-0.1301,-0.1301,-0.1369,-0.137,0,0,0,0,0,0,0,0,0,0,0,-0.1312,-0.1312,-0.1311,-0.131,-0.1301,-0.1301,-0.1369,-0.1356,0,0,0,0,0,0,0,0,0,0,-0.1355,-0.1351,-0.1312,-0.1311,-0.131,-0.1301,-0.1301,-0.1355,-0.1357,-0.1396,0,-0.139,0,-0.1385,-0.1376,-0.1377,0,0,0,-0.1311,-0.1349,-0.1341,-0.1311,-0.131,-0.1301,-0.1305,-0.1355,-0.1358,-0.14,-0.1391,-0.1393,-0.1386,-0.1377,-0.1377,-0.1296,-0.1294,0,0,-0.1312,-0.1319,-0.1338,-0.1342,-0.1304,-0.1306,-0.1305,-0.1356,-0.1363,-0.1391,-0.1394,-0.1387,-0.1377,-0.1378,-0.1297,-0.1295,0,0,0,-0.1313,-0.132,-0.1309,-0.134,-0.1333,-0.1305,-0.1305,-0.1361,-0.1355,-0.1395,-0.1388,-0.1378,-0.1379,-0.1299,-0.1296,-0.1339,0,0,0,-0.1313,-0.132,-0.1309,-0.1315,-0.1332,-0.1338,-0.1309,-0.1351,-0.1356,-0.1387,-0.1378,-0.138,-0.1301,-0.1298,-0.1342,-0.1358,0,0,0,-0.1313,-0.1321,-0.1316,-0.1315,-0.131,-0.1336,-0.1333,-0.1352,-0.1353,-0.1377,-0.138,-0.1302,-0.1298,-0.1344,-0.1361,-0.1326,0,0,0,-0.1325,-0.1315,-0.1316,-0.1307,-0.131,-0.1282,-0.1333,-0.1323,-0.1334,-0.1378,-0.13,-0.1297,-0.1345,-0.1362,-0.1328,-0.1198,-0.1178,0,0,-0.1317,-0.1315,-0.1308,-0.1308,-0.1285,-0.1284,-0.1263,-0.1301,-0.1284,-0.1295,-0.1292,-0.1341,-0.1361,-0.1326,-0.0977,-0.0965,0,0,0,-0.1308,-0.1299,-0.129,-0.1283,-0.1267,-0.1261,-0.1271,-0.1262,-0.1242,-0.1273,-0.125,-0.1259,-0.1238,-0.116,-0.1149,-0.1278,-0.1279,-0.1279,-0.128,-0.1288,-0.1287,-0.1272,-0.1265,-0.1255,-0.1239,-0.1227,-0.1202,-0.1216,-0.1172,-0.1228,-0.1138,-0.105,-0.1041,-0.1151,-0.1151,-0.1151,-0.1151,-0.1151,-0.1258,-0.1244,-0.1259,-0.1244,-0.1245,-0.1232,-0.1213,-0.1206,-0.1164,-0.1165,-0.1143,-0.1125,-0.1032,-0.1153,-0.1153,-0.1152,-0.1152,-0.1152,-0.1152,-0.1225,-0.1221,-0.1224,-0.1224,-0.1228,-0.1228,-0.1202,-0.1203,-0.1175,-0.1163,-0.1035,-0.1033,-0.1209,-0.114,-0.114,-0.1139,-0.1139,-0.1139,-0.1139,-0.1186,-0.1192,-0.1184,-0.1198,-0.1197,-0.1201,-0.1195,-0.116,-0.108,-0.1035,-0.1034,-0.1133,-0.1133,-0.1203,-0.1137,-0.1138,-0.1138,-0.1138,-0.1138,-0.1125,-0.1143,-0.1121,-0.1119,-0.1114,-0.105,-0.1095,-0.0979,-0.095,-0.0874,-0.0946,-0.0952,-0.0922,-0.0927,-0.0987,-0.087,-0.087,-0.087,-0.087,-0.1085,-0.1095,-0.1042,-0.101,-0.0983,-0.0962,-0.0794,-0.0716,-0.0707,-0.0686,-0.0694,-0.0674,-0.0688,-0.0645,-0.0658,-0.0712,-0.0524,-0.0524,-0.0523,-0.1042,-0.1033,-0.0963,-0.0935,-0.0898,-0.0815,-0.0604,-0.0411,-0.0377,-0.0515,-0.0689,-0.0837,-0.0829,-0.0842,-0.0796,-0.0808,-0.0903,0,0]},{"header":{"parameterUnit":"m.s-1","parameterCategory":2,"la1":30.2992,"la2":30.254,"lo1":-89.0895,"lo2":-89.0443,"dy":0.0025,"dx":0.0025,"nx":19,"ny":19,"refTime":"2026-03-23T09:00:00:Z","depth":"2","parameterNumber":3,"parameterNumberName":"V-component_of_CURRENTS"},"data":[0,0,0,-0.0642,-0.0642,-0.0636,-0.0636,-0.0563,-0.0563,0,0,0,0,0,0,0,0,0,0,0,-0.0644,-0.0644,-0.0642,-0.0642,-0.0637,-0.0636,-0.0564,-0.0563,0,0,0,0,0,0,0,0,0,0,0,-0.0644,-0.0644,-0.0644,-0.0642,-0.0637,-0.0636,-0.0564,-0.0584,0,0,0,0,0,0,0,0,0,0,-0.0597,-0.0608,-0.0644,-0.0644,-0.0642,-0.0637,-0.0636,-0.0585,-0.0582,-0.0549,0,-0.0552,0,-0.0555,-0.0557,-0.0556,0,0,0,-0.0639,-0.061,-0.0611,-0.0644,-0.0642,-0.0637,-0.0638,-0.0584,-0.0581,-0.0545,-0.0551,-0.0549,-0.0554,-0.0556,-0.0556,-0.048,-0.048,0,0,-0.0639,-0.0637,-0.0614,-0.0609,-0.0644,-0.0638,-0.0638,-0.0583,-0.0577,-0.0551,-0.0547,-0.0553,-0.0555,-0.0555,-0.048,-0.048,0,0,0,-0.0642,-0.0638,-0.0641,-0.0612,-0.0616,-0.0638,-0.0638,-0.058,-0.0582,-0.0547,-0.0552,-0.0555,-0.0554,-0.0481,-0.048,-0.0473,0,0,0,-0.0643,-0.064,-0.0641,-0.0639,-0.0617,-0.0606,-0.0636,-0.0586,-0.058,-0.0553,-0.0555,-0.0553,-0.0481,-0.048,-0.0473,-0.049,0,0,0,-0.0644,-0.064,-0.0642,-0.064,-0.0639,-0.0608,-0.0607,-0.0585,-0.0583,-0.0556,-0.0553,-0.0481,-0.048,-0.0474,-0.0491,-0.0459,0,0,0,-0.0639,-0.0629,-0.0642,-0.0627,-0.064,-0.0626,-0.0607,-0.0598,-0.0579,-0.0555,-0.0481,-0.048,-0.0474,-0.0491,-0.046,-0.0463,-0.046,0,0,-0.0621,-0.0627,-0.0617,-0.0628,-0.062,-0.0627,-0.0598,-0.0573,-0.0558,-0.0494,-0.0492,-0.0473,-0.0491,-0.0459,-0.0442,-0.044,0,0,0,-0.0607,-0.061,-0.0607,-0.0606,-0.06,-0.0594,-0.0576,-0.0556,-0.0515,-0.0546,-0.0468,-0.048,-0.046,-0.0462,-0.0461,-0.0479,-0.0479,-0.0479,-0.0479,-0.0599,-0.0596,-0.0594,-0.0594,-0.0582,-0.0567,-0.0549,-0.0517,-0.0499,-0.0482,-0.0468,-0.0437,-0.044,-0.0439,-0.0452,-0.0452,-0.0452,-0.0452,-0.0452,-0.0603,-0.061,-0.0603,-0.0605,-0.0589,-0.0569,-0.0515,-0.0499,-0.0445,-0.0449,-0.0429,-0.045,-0.0437,-0.0451,-0.0451,-0.0452,-0.0452,-0.0452,-0.0452,-0.0625,-0.0627,-0.0631,-0.0636,-0.0619,-0.0587,-0.0549,-0.0504,-0.0455,-0.0436,-0.0421,-0.0421,-0.0434,-0.0416,-0.0416,-0.0416,-0.0416,-0.0416,-0.0416,-0.065,-0.0651,-0.0673,-0.0671,-0.067,-0.0645,-0.0575,-0.053,-0.046,-0.0426,-0.0425,-0.0425,-0.0426,-0.0432,-0.0415,-0.0415,-0.0415,-0.0415,-0.0415,-0.0675,-0.0685,-0.0713,-0.0723,-0.0716,-0.0685,-0.0625,-0.0531,-0.0472,-0.0436,-0.0403,-0.0404,-0.0406,-0.0407,-0.0412,-0.0391,-0.0391,-0.0391,-0.0391,-0.0698,-0.0704,-0.0742,-0.0757,-0.0755,-0.0702,-0.0625,-0.0524,-0.0442,-0.0394,-0.0394,-0.0406,-0.0406,-0.0409,-0.0411,-0.0416,-0.0395,-0.0395,-0.0395,-0.0719,-0.0728,-0.0754,-0.0772,-0.077,-0.0712,-0.0615,-0.0447,-0.0338,-0.0396,-0.0396,-0.0391,-0.0408,-0.0409,-0.0415,-0.0416,-0.0425,0,0]}],[{"header":{"parameterUnit":"m.s-1","parameterCategory":2,"la1":30.2992,"la2":30.254,"lo1":-89.0895,"lo2":-89.0443,"dy":0.0025,"dx":0.0025,"nx":19,"ny":19,"refTime":"2026-03-23T09:00:00:Z","depth":"4","parameterNumber":2,"parameterNumberName":"U-component_of_CURRENTS"},"data":[0,0,0,-0.0948,-0.0948,-0.0999,-0.1,-0.1028,-0.1028,0,0,0,0,0,0,0,0,0,0,0,-0.0939,-0.094,-0.0948,-0.0949,-0.0999,-0.1,-0.1028,-0.1028,0,0,0,0,0,0,0,0,0,0,0,-0.0939,-0.094,-0.094,-0.0949,-0.0999,-0.1,-0.1028,-0.1,0,0,0,0,0,0,0,0,0,0,-0.0956,-0.096,-0.094,-0.094,-0.0949,-0.0999,-0.1,-0.1,-0.1002,-0.0992,0,-0.1004,0,-0.1008,-0.1028,-0.1028,0,0,0,-0.0956,-0.0958,-0.096,-0.094,-0.0949,-0.0999,-0.0979,-0.1001,-0.1004,-0.0995,-0.1005,-0.1006,-0.1009,-0.1028,-0.1028,-0.1026,-0.1026,0,0,-0.0953,-0.0958,-0.0958,-0.0962,-0.0967,-0.0977,-0.098,-0.1004,-0.1014,-0.1005,-0.1007,-0.1009,-0.1028,-0.1028,-0.1026,-0.1026,0,0,0,-0.094,-0.0956,-0.0959,-0.0961,-0.0968,-0.0978,-0.0982,-0.1014,-0.1012,-0.1007,-0.101,-0.1028,-0.1028,-0.1026,-0.1026,-0.105,0,0,0,-0.0939,-0.0948,-0.0958,-0.0963,-0.0968,-0.0998,-0.0992,-0.1011,-0.1013,-0.101,-0.1028,-0.1028,-0.1026,-0.1026,-0.105,-0.1049,0,0,0,-0.0936,-0.0948,-0.0952,-0.0963,-0.0979,-0.0998,-0.0999,-0.1012,-0.1014,-0.1028,-0.1028,-0.1027,-0.1026,-0.1049,-0.1049,-0.1019,0,0,0,-0.094,-0.0954,-0.0953,-0.0973,-0.0978,-0.0995,-0.0999,-0.1019,-0.1033,-0.1028,-0.1026,-0.1026,-0.1049,-0.1048,-0.1019,-0.0878,0,0,0,-0.0956,-0.0957,-0.0967,-0.0966,-0.0985,-0.0989,-0.101,-0.103,-0.1024,-0.1018,-0.1018,-0.105,-0.1049,-0.1019,-0.0871,0,0,0,0,-0.0969,-0.0976,-0.0982,-0.0996,-0.1004,-0.1019,-0.1031,-0.1032,-0.1041,-0.103,-0.104,-0.1038,-0.1019,-0.0937,-0.1026,-0.1026,-0.1026,-0.1026,-0.1026,-0.0984,-0.0989,-0.1004,-0.1012,-0.1026,-0.1039,-0.1048,-0.1048,-0.1046,-0.105,-0.1051,-0.1035,-0.095,-0.1049,-0.1049,-0.1049,-0.1049,-0.1049,-0.1049,-0.0985,-0.0982,-0.1008,-0.1024,-0.104,-0.1058,-0.1064,-0.1067,-0.1054,-0.1061,-0.1041,-0.0961,-0.1051,-0.1051,-0.105,-0.105,-0.105,-0.105,-0.105,-0.0965,-0.0964,-0.0988,-0.1013,-0.1042,-0.1063,-0.1048,-0.107,-0.1063,-0.1056,-0.0935,-0.1033,-0.1036,-0.1038,-0.1038,-0.1037,-0.1037,-0.1037,-0.1037,-0.0923,-0.0947,-0.0959,-0.0996,-0.1009,-0.1024,-0.1037,-0.1009,-0.1015,-0.093,-0.1048,-0.103,-0.1031,-0.1034,-0.1035,-0.1036,-0.1036,-0.1036,-0.1036,-0.0874,-0.0898,-0.0899,-0.0914,-0.0928,-0.0922,-0.0969,-0.0882,-0.0834,-0.0773,-0.0851,-0.086,-0.0828,-0.0833,-0.0829,-0.0769,-0.0767,-0.0766,0,-0.0836,-0.085,-0.083,-0.0815,-0.0788,-0.0838,-0.0731,-0.0714,-0.0712,-0.0691,-0.0833,-0.0924,-0.0929,-0.0898,-0.0899,-0.0896,0,0,0,-0.08,-0.0797,-0.0753,-0.0743,-0.0703,-0.0658,-0.0688,-0.063,-0.0741,-0.064,-0.0719,-0.0731,-0.0918,-0.103,-0.1003,-0.1004,-0.1007,0,0]},{"header":{"parameterUnit":"m.s-1","parameterCategory":2,"la1":30.2992,"la2":30.254,"lo1":-89.0895,"lo2":-89.0443,"dy":0.0025,"dx":0.0025,"nx":19,"ny":19,"refTime":"2026-03-23T09:00:00:Z","depth":"4","parameterNumber":3,"parameterNumberName":"V-component_of_CURRENTS"},"data":[0,0,0,-0.0548,-0.0548,-0.0571,-0.0571,-0.0566,-0.0566,0,0,0,0,0,0,0,0,0,0,0,-0.054,-0.054,-0.0548,-0.0548,-0.0571,-0.0571,-0.0566,-0.0566,0,0,0,0,0,0,0,0,0,0,0,-0.054,-0.054,-0.054,-0.0548,-0.0571,-0.0571,-0.0566,-0.0557,0,0,0,0,0,0,0,0,0,0,-0.0538,-0.0538,-0.054,-0.054,-0.0549,-0.0571,-0.0571,-0.0556,-0.0557,-0.0547,0,-0.0556,0,-0.0562,-0.0565,-0.0565,0,0,0,-0.0544,-0.0537,-0.0544,-0.054,-0.0549,-0.0571,-0.056,-0.0557,-0.0558,-0.0548,-0.0556,-0.0556,-0.0562,-0.0565,-0.0565,-0.051,-0.0509,0,0,-0.0543,-0.0542,-0.0544,-0.0545,-0.056,-0.0559,-0.056,-0.0558,-0.056,-0.0556,-0.0556,-0.0562,-0.0565,-0.0565,-0.051,-0.051,0,0,0,-0.0542,-0.0541,-0.0548,-0.0544,-0.0552,-0.056,-0.0561,-0.056,-0.0563,-0.0556,-0.0562,-0.0565,-0.0565,-0.0511,-0.051,-0.0493,0,0,0,-0.0541,-0.0541,-0.0547,-0.0546,-0.0553,-0.0561,-0.0564,-0.0563,-0.0563,-0.0562,-0.0565,-0.0565,-0.0511,-0.051,-0.0495,-0.049,0,0,0,-0.0538,-0.054,-0.0545,-0.0546,-0.0558,-0.0562,-0.0564,-0.0563,-0.0566,-0.0565,-0.0565,-0.0512,-0.0511,-0.0497,-0.0492,-0.0473,0,0,0,-0.0532,-0.0528,-0.0545,-0.054,-0.0558,-0.0558,-0.0564,-0.0572,-0.0572,-0.0565,-0.0511,-0.051,-0.0497,-0.0494,-0.0474,-0.0519,0,0,0,-0.0519,-0.0527,-0.0522,-0.0537,-0.0534,-0.0555,-0.0535,-0.0545,-0.0544,-0.0511,-0.051,-0.0495,-0.0493,-0.0473,-0.0444,0,0,0,0,-0.0512,-0.0512,-0.0514,-0.0518,-0.0525,-0.052,-0.0533,-0.0521,-0.0496,-0.0539,-0.0473,-0.0472,-0.0461,-0.049,-0.0504,-0.0504,-0.0504,-0.0504,-0.0504,-0.0497,-0.0497,-0.0493,-0.0496,-0.0494,-0.0495,-0.0478,-0.0459,-0.0474,-0.045,-0.0443,-0.0396,-0.0423,-0.0424,-0.0424,-0.0424,-0.0424,-0.0424,-0.0424,-0.0483,-0.048,-0.0479,-0.0479,-0.0471,-0.046,-0.0421,-0.042,-0.038,-0.0396,-0.0386,-0.0451,-0.0422,-0.0422,-0.0422,-0.0423,-0.0423,-0.0423,-0.0423,-0.0481,-0.0477,-0.0485,-0.0482,-0.0465,-0.0451,-0.0424,-0.0392,-0.0364,-0.0348,-0.0385,-0.0379,-0.0399,-0.0351,-0.0351,-0.0351,-0.0351,-0.0351,-0.0351,-0.0477,-0.0479,-0.0498,-0.0488,-0.0495,-0.0479,-0.0434,-0.0413,-0.0376,-0.0365,-0.0351,-0.0371,-0.0374,-0.0394,-0.0349,-0.0349,-0.035,-0.035,-0.035,-0.0469,-0.0489,-0.0511,-0.053,-0.0539,-0.0518,-0.0481,-0.0429,-0.0402,-0.0375,-0.0368,-0.0367,-0.0378,-0.038,-0.0401,-0.0357,-0.0357,-0.0358,0,-0.0475,-0.048,-0.0535,-0.0569,-0.0578,-0.0546,-0.0523,-0.0485,-0.0418,-0.0415,-0.0402,-0.0396,-0.0395,-0.0411,-0.0413,-0.044,0,0,0,-0.0478,-0.0498,-0.0541,-0.0583,-0.0599,-0.055,-0.0513,-0.0495,-0.0427,-0.0411,-0.0368,-0.0365,-0.0399,-0.0343,-0.0359,-0.0362,-0.0395,0,0]}]]